Regional Weather Roundup
Issued by NWS

Home | Current Version | Previous Version | Graphics & Text | Print | Product List | Glossary On
Versions: 1 2 3 4 5 6 7 8 9 10 11 12 13 14 15 16 17 18 19 20 21 22 23 24 25 26 27 28 29 30 31 32 33 34 35 36 37 38 39 40 41 42 43 44 45 46 47 48 49 50
000
ASUS45 KBOU 140707
RWRCO

WEATHER ROUNDUP FOR COLORADO
NATIONAL WEATHER SERVICE DENVER/BOULDER CO
1200 AM MST SUN FEB 14 2016

NOTE: "FAIR" INDICATES FEW OR NO CLOUDS BELOW 12000 FEET WITH NO
SIGNIFICANT WEATHER AND/OR OBSTRUCTIONS TO VISIBILITY.

COZ001>005-013-030-031-140800-
...NORTHWEST COLORADO...

CITY           SKY/WX    TMP DP  RH WIND       PRES   REMARKS
CRAIG          FAIR      10   7  87 SE5       30.25S WCI   2
HAYDEN         FAIR      23  16  74 W3        30.23F
MEEKER         FAIR      19  12  74 CALM      30.23R
MOUNT WERNER   NOT AVBL
STEAMBOAT SPGS FAIR      22  15  72 E6        30.23F WCI  15
WALDEN         FAIR      28  14  54 W14       30.16F WCI  17
$$

COZ006>008-011-140800-
...WEST CENTRAL VALLEYS...

CITY           SKY/WX    TMP DP  RH WIND       PRES   REMARKS
GRAND JUNCTION FAIR      31  27  85 E5        30.22S WCI  26
MONTROSE       FAIR      28  24  85 SE7       30.24F WCI  21
EAGLE          FAIR      27  21  80 E12       30.24R WCI  16
RIFLE          FAIR      24  18  77 CALM      30.24R
DELTA          FAIR      32  28  86 CALM      30.24S
NUCLA          FAIR      34  27  75 SE7       30.25S WCI  28
$$

COZ017>023-064>068-140800-
...SOUTHWEST COLORADO...

CITY           SKY/WX    TMP DP  RH WIND       PRES   REMARKS
DURANGO        FAIR      32  17  54 CALM      30.15F
CORTEZ         FAIR      30  24  78 E7        30.20R WCI  23
PAGOSA SPRINGS FAIR      30  18  62 CALM      30.19S
TELLURIDE      NOT AVBL
WOLF CREEK PAS FAIR      27  -6  24 N7        30.31F WCI  19
$$

COZ009-010-012-014-032>034-037-058>063-140800-
...CENTRAL COLORADO...

CITY           SKY/WX    TMP DP  RH WIND       PRES   REMARKS
ASPEN          FAIR      24  13  62 SW8       30.21F WCI  15
BUENA VISTA    FAIR      39   5  24 W15G24    30.14F
COPPER MTN     FAIR      23   3  42 W12G21    30.24F WCI  12
BERTHOUD PASS  FAIR      14   3  62 NW21G28   30.22F WCI  -4
COTTONWOOD PAS FAIR      36   1  23 W18G37    30.16F
GUNNISON       FAIR       7   1  78 CALM      30.29S
KREMMLING      FAIR      32  16  51 SW5       30.24S WCI  27
LEADVILLE      FAIR      25   6  44 N10       30.21F WCI  15
MONARCH PASS   FAIR      21   5  49 W39       30.33F WCI   1
SALIDA         NOT AVBL
SUNLIGHT       FAIR      27  18  69 CALM        N/A
WILKERSON PASS FAIR      27   1  33 W20G36    30.14S WCI  13
$$

COZ069>075-140800-
...SAN LUIS VALLEY/SANGRE DE CRISTO MOUNTAINS...

CITY           SKY/WX    TMP DP  RH WIND       PRES   REMARKS
ALAMOSA        FAIR      32  19  58 NW6       30.16F WCI  26
LA VETA PASS   FAIR      32   9  37 MISG      30.15F
SAGUACHE       FAIR      30  18  59 N8        30.17F WCI  23
$$

COZ035-036-038>040-140800-
...NORTHERN COLORADO FRONT RANGE...

CITY           SKY/WX    TMP DP  RH WIND       PRES   REMARKS
DENVER INTL AP FAIR      30  26  85 E13       30.03S WCI  20
DMNS CITY PARK   N/A     36  24  64 E12G17    30.04R
AURORA         PTCLDY    31  20  65 E13       30.04S WCI  21
FRONT RANGE AP   N/A     30  28  93 NE13      30.04F WCI  20
ERIE MUNI ARPT FAIR      37  24  58 SE12      30.02R
BOULDER MUN AP FAIR      43  19  39 E13G23    29.99R
CENTENNIAL     FAIR      34  22  61 E12       30.05R WCI  25
BROOMFIELD     FAIR      39  21  48 E10G25    30.01R
FORT COLLINS   FAIR      39  19  45 N10       30.00F
LONGMONT       FAIR      45  17  32 NE5       30.01F
$$

COZ041-046-047-076>085-087-088-140800-
...PIKES PEAK/PALMER DIVIDE AND SOUTHERN FOOTHILLS...

CITY           SKY/WX    TMP DP  RH WIND       PRES   REMARKS
COLO. SPRINGS  FAIR      41  16  36 NE17      30.04R
A. F. ACADEMY  FAIR      40  13  33 E13       30.03R
SCHRIEVER AFB  FAIR      36  19  49 N14       30.05R
ELLICOTT       FAIR     N/A N/A N/A NE16      30.04S
FALCON         FAIR      33  17  52 N9        30.08S WCI  25
FORT CARSON    FAIR      41  19  41 N5        30.03R
LIMON          FAIR      30  27  88 N8        30.06R WCI  22
MONUMENT HILL  FAIR      28  19  69 E8        30.09S WCI  20
TRINIDAD       FAIR      34  12  40 W12       30.01R WCI  25
$$

COZ042>045-048>051-090-091-140800-
...NORTHEAST COLORADO...

CITY           SKY/WX    TMP DP  RH WIND       PRES   REMARKS
GREELEY ARPT   FAIR      39  27  60 N17       30.02F
AKRON          FAIR      30  26  85 N13       30.05S WCI  20
BURLINGTON     FAIR      32  27  81 N6        30.06F WCI  26
WRAY           FAIR      37  29  72 NW16G24   30.05S
STERLING       FAIR      34  27  75 NW14      30.04S WCI  24
HOLYOKE        FAIR      36  30  80 W10       30.04S
FORT MORGAN    FAIR      33  27  76 N17       30.06S WCI  22
$$

COZ086-089-092>099-140800-
...SOUTHEAST COLORADO...

CITY           SKY/WX    TMP DP  RH WIND       PRES   REMARKS
PUEBLO         FAIR      37  28  70 N9        30.00S
LA JUNTA       FAIR      32  28  85 VRB6G16   30.01R WCI  26
LAMAR          FAIR      33  28  81 NE10      30.04R WCI  25
SPRINGFIELD      N/A     29  27  92 NW12      29.94S WCI  19
$$



USA.gov is the U.S. government's official web portal to all federal, state and local government web resources and services.